Weather in Aleshenka

Russia / Bryansk Oblast     52°28′43″N   33°29′42″E
temp.,
°C
wind,
m/s
gust,
m/s
humid.,
%
clouds,
%
prec.,
mm/h
press.,
hPa
HPBL,
m
16 april, fri
fri1600:00+9e228286 0.0 101211
03:00+8ene358192 0.1 101188
06:00+7ese499362 0.2 1012273
09:00+10se697566 0.2 1013980
12:00+11ese686476 0.4 10141277
15:00+12se6862100 1.1 10141566
18:00+12se576580 0.3 10141125
21:00+8ese36855 0.4 1015135
17 april, sat
sat1700:00+7e358967 0.0 1016136
03:00+6ese24917 0.2 101789
06:00+5e239451 0.0 101761
09:00+9ese2378100 0.0 1018435
12:00+9ne1174100 0.4 1018526
15:00+10wnw2264100 0.8 1017821
18:00+9wnw3576100 0.6 1017573
21:00+8wsw2587100 0.6 1016326
18 april, sun
sun1800:00+7sse2294100 1.4 1016158
03:00+6sw5793100 10.8 1016875
06:00+5s4793100 5.5 1016717
09:00+5se5990100 9.4 1017779
12:00+7se5674100 0.9 10181084
15:00+8se5575100 1.1 10181021
18:00+7ese5784100 0.3 1018566
21:00+6ese5993100 1.2 1018443
19 april, mon
mon1900:00+6e5995100 3.1 1017473
03:00+7se4894100 6.7 1017462
06:00+7ese4894100 2.7 1017296
09:00+7ese489195 3.3 1017320
12:00+11ese6970100 0.4 10161174
15:00+12se3564100 0.9 10151367
18:00+11e697199 1.1 10141049
21:00+9e41083100 1.3 1012601
20 april, tue
tue2000:00+8ne61290100 1.0 1009694
03:00+8ene71393100 3.1 1005936
06:00+8ne71395100 1.3 1002668
09:00+8ne101993100 6.6 996950
12:00+9ene101991100 7.9 9901162
15:00+13se8137899 12.7 9891194
18:00+11se91383100 1.4 989867
21:00+9ese61290100 3.6 990623